Location: Roanoke
(37.2710°N, 79.9420°W)
Time: 11:15:20
(UTC-05:00)

Daily predictions for brighter satellites

Satellite Brightness Start Highest point End
(mag) Time Altitude Azimuth Time Altitude Azimuth Time Altitude Azimuth
Cosmos 2181 Rocket 4.1 17:22:04 10° S 17:28:22 80° E 17:34:48 10° N
Cosmos 2218 Rocket 4.4 17:23:41 10° N 17:29:37 42° ENE 17:35:26 10° SSE
Cosmos 1048 Rocket 4.2 17:25:40 10° NNW 17:31:00 84° WSW 17:36:21 10° SSE
Cosmos 1455 Rocket 4.0 17:29:09 10° NNE 17:32:55 27° ENE 17:36:42 10° SE
Cosmos 1536 3.0 17:28:58 10° N 17:33:03 84° W 17:37:07 10° S
OTV 4 1.0 17:37:33 10° W 17:40:30 56° SSW 17:43:27 10° ESE
Cosmos 1812 3.3 17:39:10 10° SSE 17:42:44 37° E 17:46:20 10° NNE
Cosmos 1295 Rocket 4.5 17:37:47 10° N 17:43:57 85° E 17:50:02 10° S
Cosmos 1844 Rocket 2.8 17:41:03 10° SSW 17:46:37 79° WNW 17:52:16 10° NNE
PAYLOAD A 4.2 17:42:59 10° S 17:47:43 71° WSW 17:52:38 10° NNW
Cosmos 1346 Rocket 4.1 17:45:50 10° SE 17:48:42 20° E 17:51:16 11° NE
SPOT 3 Rocket 3.6 17:49:21 10° SSE 17:54:32 89° E 17:59:45 10° NNW
MSX 3.9 17:49:02 10° SSE 17:54:38 57° ENE 18:00:16 10° N
SL-8 R/B 3.7 17:52:19 10° SW 17:57:04 78° SE 18:00:58 16° ENE
Cosmos 1844 3.7 17:54:33 10° SSW 18:00:07 83° WNW 18:05:43 10° NNE
CZ-4 R/B 2.2 17:56:35 10° S 18:00:42 56° W 18:04:49 10° NNW
SJ-12 4.4 17:58:03 10° S 18:02:06 66° W 18:06:12 10° NNW
SL-08 R/B 4.5 17:56:38 10° N 18:03:01 73° E 18:09:16 10° SSE
CORIOLIS 4.2 17:57:51 10° SSE 18:03:17 90° E 18:08:42 10° NNW
USA 234 4.3 18:01:45 10° NNE 18:07:40 38° NNW 18:13:33 10° W
USA 32 4.4 18:04:16 10° SSW 18:09:27 69° W 18:14:40 10° N
IDEFIX/ARIANE 42P 3.0 18:07:50 10° S 18:13:00 65° WSW 18:18:10 10° NNW
Meteor 1-12 Rocket 4.2 18:07:25 10° N 18:13:12 69° E 18:19:03 10° SSE
Cosmos 1975 2.9 18:11:10 10° N 18:15:09 51° E 18:19:04 10° SSE
Cosmos 2278 Rocket 2.1 18:11:35 10° SSW 18:17:13 82° ESE 18:22:55 10° NNE
COSMO-SKYMED 1 2.5 18:16:44 10° NNE 18:21:05 72° ESE 18:25:24 10° S
Nadezhda 3 Rocket 4.1 18:15:15 10° SSE 18:21:10 51° E 18:27:10 10° NNE
Cosmos 1544 Rocket 4.1 18:16:49 10° NNW 18:21:13 61° W 18:25:36 10° S
NOSS 3-3 (A) 3.9 18:15:06 10° SSW 18:21:15 85° ESE 18:26:54 15° NNE
NOSS 3-3 (C) 3.9 18:15:12 10° SSW 18:21:20 84° ESE 18:26:58 15° NE
Cosmos 494 Rocket 4.0 18:23:04 10° NNW 18:28:21 90° W 18:33:37 10° SSE
Tiangong 1 1.5 18:26:43 10° SW 18:29:36 43° SSE 18:29:51 42° SE
ISS -0.9 18:28:50 10° WNW 18:30:53 15° NNW 18:32:01 13° N
ATLAS 2AS CENTAUR R/B 3.0 18:24:16 10° NNW 18:32:22 87° WSW 18:39:48 10° SSE
Meteor 1-13 Rocket 4.2 18:30:37 10° S 18:36:07 59° E 18:41:41 10° NNE
Cosmos 1484 Rocket 2.8 18:32:55 10° S 18:36:40 74° WSW 18:40:25 10° NNW
Genesis I 4.4 18:34:34 10° NNW 18:36:53 26° NNE 18:36:53 26° NNE
Cosmos 1536 Rocket 4.4 18:34:34 10° SSW 18:38:54 52° W 18:43:18 10° N
Cosmos 2082 Rocket 2.6 18:39:28 10° N 18:44:44 38° ENE 18:45:09 38° ENE
Cosmos 2251 Rocket 4.5 18:43:16 10° NNW 18:48:25 49° WSW 18:53:29 10° S
Cosmos 1833 Rocket 3.4 18:43:24 10° N 18:47:38 33° NE 18:47:38 33° NE
Timation 1 Rocket 4.4 18:42:53 10° S 18:48:41 57° ESE 18:50:53 37° NE
NOAA 12 4.0 18:44:22 10° SSE 18:49:35 64° ENE 18:54:48 10° N
METEOR-M 4.1 18:48:49 10° SSE 18:54:02 59° ENE 18:59:17 10° N
Cosmos 1025 Rocket 4.1 18:50:28 10° SSE 18:52:55 30° SE 18:52:55 30° SE
Meteor 2-21 Rocket 4.3 18:49:51 10° N 18:56:05 81° E 19:02:13 10° S
Cosmos 1500 3.9 18:54:01 10° NNW 18:57:46 53° W 19:01:30 10° S
Meteor 2-16 Rocket 4.3 18:54:56 10° N 19:01:02 72° E 19:07:04 10° SSE
Meteor 1-28 Rocket 3.6 19:00:16 42° NNW 19:01:20 61° WNW 19:05:04 10° SSW
Cosmos 921 Rocket 2.8 18:57:25 10° SSW 19:01:34 82° ESE 19:01:34 82° ESE
BREEZE M DEB (TANK) 2.8 18:55:45 10° WSW 19:03:37 57° NW 19:04:05 52° N
Okean 1-7 Rocket 3.7 19:03:38 10° SSW 19:08:09 73° W 19:09:30 44° N
Meteor 2-4 Rocket 3.5 19:02:59 10° S 19:08:15 64° E 19:08:15 64° E
BREEZE-M R/B 4.5 18:59:04 10° WSW 19:08:26 47° NW 19:10:11 35° NNE
OTV 4 3.5 19:14:51 10° WSW 19:16:04 14° SW 19:16:04 14° SW
NOSS 2-1 (D) 4.3 19:14:39 10° SW 19:17:10 41° SW 19:17:10 41° SW
NOSS 2-1 (C) 4.4 19:15:20 10° SSW 19:17:48 39° SW 19:17:48 39° SW
GEOS 3 Rocket 4.0 19:16:36 20° SSE 19:20:09 61° WSW 19:25:13 10° NW
Cosmos 1535 Rocket 4.4 19:14:29 10° N 19:20:50 89° ENE 19:27:03 10° S
Delta 2 Rocket 4.5 19:19:04 10° WSW 19:21:53 40° SW 19:21:53 40° SW
Cosmos 1934 Rocket 3.8 19:17:30 10° N 19:23:43 74° E 19:29:59 10° SSE
Timation 2 Rocket 4.1 19:21:11 10° NNW 19:28:03 84° WSW 19:33:01 20° SSE
ATLAS 3B CENTAUR R/B 3.5 19:21:49 10° WSW 19:36:25 46° S 19:38:07 40° SSE
CZ-3B DEB 4.2 19:36:20 10° WNW 19:41:17 31° N 19:43:53 27° NNE
Cosmos 1821 Rocket 4.5 19:41:05 10° NNW 19:47:02 56° W 19:52:57 10° SSW
BREEZE M DEB (TANK) 4.4 20:02:49 10° NW 20:40:11 - SE 20:06:13 52° NNW
Cosmos 2082 Rocket 4.2 20:23:56 10° NW 20:27:09 24° WNW 20:27:09 24° WNW
FALCON 9 R/B 4.2 20:43:32 10° W 20:51:03 34° W 20:51:03 34° W
